FW5442 Weather Reports


Display with metric or nautical units.
time (UTC)temp
F
wind
direction
speed
MPH
gust
MPH
rain 1hr
in
rain 24hr
in
rain mn
in
humidity
%
barometer
mb
20260505200553 74 160 17.0 23.0 0.00 0.00 0.00 75 1008.1
20260505200056 74 177 16.0 26.0 0.00 0.00 0.00 75 1008.2
20260505195552 74 193 19.0 26.0 0.00 0.00 0.00 75 1008.2
20260505195052 74 200 20.0 29.0 0.00 0.00 0.00 75 1008.1
20260505194555 74 205 20.0 29.0 0.00 0.00 0.00 74 1008.2
20260505194053 74 196 17.0 26.0 0.00 0.00 0.00 74 1008.2
20260505193556 74 200 20.0 29.0 0.00 0.00 0.00 74 1008.0
20260505193053 74 204 20.0 29.0 0.00 0.00 0.00 74 1008.3
20260505192553 74 191 19.0 27.0 0.00 0.00 0.00 74 1008.3
20260505192053 74 180 19.0 26.0 0.00 0.00 0.00 74 1008.3
20260505191605 74 179 19.0 26.0 0.00 0.00 0.00 74 1008.4
20260505191058 74 167 16.0 26.0 0.00 0.00 0.00 74 1008.4
20260505190552 74 190 19.0 25.0 0.00 0.00 0.00 74 1008.3
20260505185556 74 196 14.0 30.0 0.00 0.00 0.00 74 1008.4
20260505185056 74 203 18.0 30.0 0.00 0.00 0.00 75 1008.3
20260505184558 74 189 22.0 30.0 0.00 0.00 0.00 75 1008.5
20260505184053 73 188 16.0 29.0 0.00 0.00 0.00 75 1008.5
20260505183553 73 193 18.0 29.0 0.00 0.00 0.00 75 1008.5
20260505183114 73 196 21.0 29.0 0.00 0.00 0.00 75 1008.4
20260505182553 73 188 20.0 27.0 0.00 0.00 0.00 75 1008.4
20260505182053 73 162 18.0 26.0 0.00 0.00 0.00 75 1008.3
20260505181557 72 162 15.0 26.0 0.00 0.00 0.00 77 1008.4
20260505181056 72 178 12.0 22.0 0.00 0.00 0.00 77 1008.4
20260505180554 72 169 16.0 23.0 0.00 0.00 0.00 76 1008.4
20260505180054 71 188 15.0 23.0 0.00 0.00 0.00 78 1008.6
20260505175553 71 208 15.0 23.0 0.00 0.00 0.00 78 1008.6
20260505175056 71 182 13.0 28.0 0.00 0.00 0.00 78 1008.8
20260505174554 71 160 15.0 28.0 0.00 0.00 0.00 79 1008.7
20260505174053 71 173 20.0 28.0 0.00 0.00 0.00 79 1008.7
20260505173555 70 170 19.0 26.0 0.00 0.00 0.00 79 1008.8
20260505173101 70 183 19.0 27.0 0.00 0.00 0.00 79 1008.8
20260505172557 70 192 20.0 28.0 0.00 0.00 0.00 79 1008.9
20260505172055 70 198 19.0 28.0 0.00 0.00 0.00 78 1009.0
20260505171601 71 183 21.0 28.0 0.00 0.00 0.00 77 1009.1
20260505171056 71 165 19.0 26.0 0.00 0.00 0.00 77 1009.1
20260505170554 71 184 17.0 26.0 0.00 0.00 0.00 77 1009.1
20260505170058 71 186 19.0 28.0 0.00 0.00 0.00 77 1009.2
20260505165558 71 175 19.0 28.0 0.00 0.00 0.00 76 1009.1
20260505165053 71 182 20.0 33.0 0.00 0.00 0.00 76 1009.1
20260505164553 71 169 19.0 33.0 0.00 0.00 0.00 76 1009.2
20260505164053 71 165 23.0 33.0 0.00 0.00 0.00 76 1009.3
20260505163553 71 187 19.0 27.0 0.00 0.00 0.00 76 1009.3
20260505163056 71 167 18.0 28.0 0.00 0.00 0.00 75 1009.4
20260505162552 71 224 18.0 28.0 0.00 0.00 0.00 76 1009.4
20260505162054 71 199 20.0 29.0 0.00 0.00 0.00 76 1009.4
20260505161616 71 195 18.0 29.0 0.00 0.00 0.00 75 1009.3
20260505161054 71 180 22.0 29.0 0.00 0.00 0.00 75 1009.3
20260505160556 70 183 17.0 26.0 0.00 0.00 0.00 76 1009.2
20260505153103 69 212 16.0 25.0 0.00 0.00 0.00 77 1009.5
20260505152553 69 175 19.0 25.0 0.00 0.00 0.00 77 1009.4
20260505152052 68 165 17.0 22.0 0.00 0.00 0.00 77 1009.5
20260505151614 68 194 13.0 25.0 0.00 0.00 0.00 78 1009.6
20260505151055 68 181 17.0 25.0 0.00 0.00 0.00 78 1009.6
20260505150553 68 183 15.0 21.0 0.00 0.00 0.00 78 1009.6
20260505140553 66 210 13.0 19.0 0.00 0.00 0.00 77 1009.9
20260505124559 64 208 16.0 23.0 0.00 0.00 0.00 77 1009.3
20260505124053 64 186 15.0 22.0 0.00 0.00 0.00 77 1009.4
20260505123556 64 195 13.0 20.0 0.00 0.00 0.00 77 1009.4
20260505123057 64 195 12.0 21.0 0.00 0.00 0.00 78 1009.2
20260505122554 63 174 15.0 21.0 0.00 0.00 0.00 78 1009.1
20260505122055 63 201 15.0 18.0 0.00 0.00 0.00 79 1009.1
20260505121556 63 195 13.0 20.0 0.00 0.00 0.00 79 1009.1
20260505121057 62 195 14.0 20.0 0.00 0.00 0.00 79 1009.0
20260505120557 62 183 15.0 20.0 0.00 0.00 0.00 79 1008.8
20260505120110 62 183 14.0 20.0 0.00 0.00 0.00 79 1008.7
20260505115556 62 187 13.0 20.0 0.00 0.00 0.00 80 1008.7
20260505115057 62 189 12.0 21.0 0.00 0.00 0.00 79 1008.7
20260505114600 62 179 15.0 21.0 0.00 0.00 0.00 79 1008.7
20260505114057 62 167 14.0 21.0 0.00 0.00 0.00 79 1008.6
20260505113555 62 182 12.0 18.0 0.00 0.00 0.00 80 1008.6
20260505113059 62 166 13.0 18.0 0.00 0.00 0.00 80 1008.6
20260505112555 62 172 11.0 17.0 0.00 0.00 0.00 80 1008.7
20260505112055 62 177 12.0 20.0 0.00 0.00 0.00 80 1008.6
20260505111555 62 169 12.0 20.0 0.00 0.00 0.00 80 1008.6
20260505111055 62 183 12.0 20.0 0.00 0.00 0.00 80 1008.6
20260505110555 61 184 9.0 18.0 0.00 0.00 0.00 80 1008.6
20260505102056 62 165 11.0 18.0 0.00 0.00 0.00 78 1008.3
20260505101554 62 177 11.0 18.0 0.00 0.00 0.00 77 1008.4
20260505101055 62 169 10.0 17.0 0.00 0.00 0.00 77 1008.5
20260505100555 62 159 10.0 17.0 0.00 0.00 0.00 77 1008.5
20260505100055 62 155 9.0 15.0 0.00 0.00 0.00 77 1008.4
20260505095555 62 171 9.0 15.0 0.00 0.00 0.00 77 1008.4
20260505095054 62 179 8.0 15.0 0.00 0.00 0.00 77 1008.4
20260505094553 62 171 10.0 15.0 0.00 0.00 0.00 77 1008.5
20260505094055 62 162 8.0 14.0 0.00 0.00 0.00 77 1008.5
20260505093555 62 155 9.0 14.0 0.00 0.00 0.00 76 1008.6
20260505093056 62 179 10.0 14.0 0.00 0.00 0.00 76 1008.8
20260505092556 62 169 9.0 14.0 0.00 0.00 0.00 76 1008.8
20260505092054 63 203 8.0 14.0 0.00 0.00 0.00 76 1008.7
20260505091552 63 176 8.0 15.0 0.00 0.00 0.00 75 1008.8
20260505091059 63 187 9.0 15.0 0.00 0.00 0.00 75 1008.8
20260505090555 63 162 10.0 18.0 0.00 0.00 0.00 74 1008.8
20260505090053 63 181 11.0 18.0 0.00 0.00 0.00 74 1008.8
20260505085555 63 155 11.0 17.0 0.00 0.00 0.00 74 1008.8
20260505085055 63 181 9.0 16.0 0.00 0.00 0.00 74 1008.7
20260505084554 64 174 9.0 18.0 0.00 0.00 0.00 73 1008.8
20260505084055 64 171 11.0 18.0 0.00 0.00 0.00 73 1008.9
20260505083554 64 199 11.0 17.0 0.00 0.00 0.00 73 1009.0
20260505083054 64 185 11.0 16.0 0.00 0.00 0.00 73 1009.0
20260505082554 64 170 8.0 13.0 0.00 0.00 0.00 73 1008.9
20260505082055 64 172 8.0 13.0 0.00 0.00 0.00 73 1008.9
20260505081604 64 175 8.0 12.0 0.00 0.00 0.00 73 1008.9
20260505081055 64 160 7.0 11.0 0.00 0.00 0.00 73 1008.9
20260505080555 64 189 5.0 12.0 0.00 0.00 0.00 72 1008.9
20260505080054 64 201 5.0 12.0 0.00 0.00 0.00 72 1008.7
20260505075551 64 179 7.0 13.0 0.00 0.00 0.00 72 1009.0
20260505075051 64 172 7.0 13.0 0.00 0.00 0.00 72 1009.1
20260505074558 64 201 7.0 11.0 0.00 0.00 0.00 72 1009.1
20260505074055 64 178 4.0 9.0 0.00 0.00 0.00 72 1009.4
20260505073555 64 179 3.0 10.0 0.00 0.00 0.00 71 1009.5
20260505073110 64 163 0.0 10.0 0.00 0.00 0.00 71 1009.5
20260505072554 64 172 1.0 10.0 0.00 0.00 0.00 71 1009.5
20260505072056 64 156 4.0 11.0 0.00 0.00 0.00 70 1009.6
20260505071558 64 169 5.0 11.0 0.00 0.00 0.00 70 1009.6
20260505071055 64 178 6.0 10.0 0.00 0.00 0.00 70 1009.6
20260505070557 64 141 6.0 11.0 0.00 0.00 0.00 70 1009.6
20260505070055 64 199 4.0 11.0 0.00 0.00 0.00 69 1009.7
20260505065554 64 175 6.0 11.0 0.00 0.00 0.00 69 1009.8
20260505065054 64 179 7.0 10.0 0.00 0.00 0.00 69 1009.8
20260505064552 64 177 5.0 9.0 0.00 0.00 0.00 69 1009.9
20260505064054 64 0 6.0 9.0 0.00 0.00 0.00 69 1010.0
20260505063554 64 153 4.0 9.0 0.00 0.00 0.00 69 1010.0
20260505063054 64 181 0.0 7.0 0.00 0.00 0.00 69 1010.0
20260505062552 64 174 1.0 10.0 0.00 0.00 0.00 69 1009.9
20260505062053 64 0 3.0 10.0 0.00 0.00 0.00 68 1009.9
20260505061556 64 160 4.0 9.0 0.00 0.00 0.00 68 1010.1
20260505061053 64 176 2.0 9.0 0.00 0.00 0.00 68 1009.9
20260505060554 65 0 1.0 9.0 0.00 0.00 0.00 67 1010.1
20260505060056 65 171 3.0 9.0 0.00 0.00 0.00 67 1010.1
20260505055553 65 186 2.0 9.0 0.00 0.00 0.00 67 1010.0
20260505055054 65 165 4.0 9.0 0.00 0.00 0.00 66 1010.0
20260505054622 65 172 3.0 9.0 0.00 0.00 0.00 66 1010.2
20260505054053 65 167 1.0 9.0 0.00 0.00 0.00 66 1010.1
20260505053553 65 190 0.0 9.0 0.00 0.00 0.00 65 1010.1
20260505053108 66 0 4.0 10.0 0.00 0.00 0.00 65 1010.1
20260505052556 66 198 5.0 10.0 0.00 0.00 0.00 64 1010.3
20260505052052 66 188 4.0 10.0 0.00 0.00 0.00 64 1010.1
20260505051557 66 162 5.0 10.0 0.00 0.00 0.00 64 1010.0
20260505051054 66 165 2.0 11.0 0.00 0.00 0.00 64 1010.1
20260505050552 66 165 4.0 12.0 0.00 0.00 0.00 63 1010.1
20260505041600 67 0 5.0 12.0 0.00 0.00 0.00 60 1010.3
20260505041052 67 0 3.0 11.0 0.00 0.00 0.00 60 1010.3
20260505040553 67 182 1.0 11.0 0.00 0.00 0.00 60 1010.5
20260505040056 67 192 3.0 11.0 0.00 0.00 0.00 60 1010.6
20260505035553 67 178 4.0 12.0 0.00 0.00 0.00 59 1010.4
20260505035052 68 198 7.0 13.0 0.00 0.00 0.00 59 1010.4
20260505034551 68 176 7.0 13.0 0.00 0.00 0.00 59 1010.4
20260505034055 68 181 7.0 13.0 0.00 0.00 0.00 59 1010.0
20260505033552 68 149 4.0 13.0 0.00 0.00 0.00 59 1010.2
20260505033057 68 177 5.0 12.0 0.00 0.00 0.00 59 1010.2
20260505032552 68 0 5.0 12.0 0.00 0.00 0.00 59 1010.1
20260505032051 68 198 4.0 10.0 0.00 0.00 0.00 59 1009.9
20260505031608 68 0 2.0 10.0 0.00 0.00 0.00 59 1010.0
20260505031052 68 185 0.0 9.0 0.00 0.00 0.00 59 1010.3
20260505030552 68 172 2.0 9.0 0.00 0.00 0.00 59 1010.0
20260505030057 68 0 2.0 10.0 0.00 0.00 0.00 59 1010.0
20260505025553 68 0 2.0 10.0 0.00 0.00 0.00 58 1010.0
20260505025054 68 181 1.0 10.0 0.00 0.00 0.00 58 1010.0
20260505024559 68 0 1.0 8.0 0.00 0.00 0.00 58 1010.0
20260505024054 68 0 0.0 5.0 0.00 0.00 0.00 57 1009.9
20260505023554 68 162 0.0 0.0 0.00 0.00 0.00 57 1009.9
20260505023121 68 0 0.0 7.0 0.00 0.00 0.00 56 1010.0
20260505022552 68 0 0.0 7.0 0.00 0.00 0.00 55 1010.0
20260505022052 69 183 2.0 7.0 0.00 0.00 0.00 54 1009.9
20260505021555 69 0 0.0 8.0 0.00 0.00 0.00 54 1009.7
20260505021053 69 0 1.0 9.0 0.00 0.00 0.00 54 1009.5
20260505020555 70 174 2.0 10.0 0.00 0.00 0.00 53 1009.6
20260505020054 70 0 2.0 10.0 0.00 0.00 0.00 52 1009.5
20260505015552 70 188 2.0 10.0 0.00 0.00 0.00 52 1009.6
20260505015054 71 175 4.0 10.0 0.00 0.00 0.00 51 1009.5
20260505014604 71 194 3.0 13.0 0.00 0.00 0.00 51 1009.5
20260505014052 71 193 5.0 15.0 0.00 0.00 0.00 50 1009.5
20260505013552 71 205 7.0 15.0 0.00 0.00 0.00 50 1009.4
20260505013106 71 155 6.0 15.0 0.00 0.00 0.00 50 1009.4
20260505012552 72 172 7.0 15.0 0.00 0.00 0.00 50 1009.5
20260505012052 72 187 4.0 16.0 0.00 0.00 0.00 50 1009.4
20260505011554 72 189 7.0 16.0 0.00 0.00 0.00 49 1009.5
20260505011052 72 183 9.0 16.0 0.00 0.00 0.00 49 1009.4
20260505010552 73 168 7.0 19.0 0.00 0.00 0.00 49 1009.4
20260505010055 73 186 10.0 22.0 0.00 0.00 0.00 48 1009.5
20260505005555 73 172 10.0 22.0 0.00 0.00 0.00 48 1009.6
20260505005053 73 197 12.0 22.0 0.00 0.00 0.00 47 1009.3
20260505004557 73 161 11.0 18.0 0.00 0.00 0.00 47 1009.3
20260505004051 73 198 11.0 20.0 0.00 0.00 0.00 48 1009.3
20260505003551 74 178 10.0 20.0 0.00 0.00 0.00 48 1009.3
20260505003055 74 177 10.0 22.0 0.00 0.00 0.00 47 1009.5
20260505002555 74 189 12.0 22.0 0.00 0.00 0.00 47 1009.4
20260505002052 74 186 12.0 22.0 0.00 0.00 0.00 47 1009.4
20260505001559 74 182 7.0 24.0 0.00 0.00 0.00 47 1009.3
20260505001052 74 191 13.0 24.0 0.00 0.00 0.00 47 1009.4
20260505000552 74 223 11.0 24.0 0.00 0.00 0.00 46 1009.4
20260505000113 75 221 11.0 22.0 0.00 0.00 0.00 46 1009.7
20260504235555 75 205 13.0 21.0 0.00 0.00 0.00 45 1009.6
20260504235051 75 193 14.0 23.0 0.00 0.00 0.00 45 1009.7
20260504234554 75 193 14.0 23.0 0.00 0.00 0.00 45 1009.7
20260504234054 75 221 16.0 22.0 0.00 0.00 0.00 45 1009.9
20260504233555 75 214 12.0 24.0 0.00 0.00 0.00 44 1009.9
20260504233057 75 202 16.0 28.0 0.00 0.00 0.00 45 1010.1
20260504232555 76 227 18.0 28.0 0.00 0.00 0.00 44 1010.0
20260504232056 76 226 16.0 24.0 0.00 0.00 0.00 43 1010.0
20260504231553 76 233 13.0 28.0 0.00 0.00 0.00 43 1010.0
20260504231056 76 239 14.0 28.0 0.00 0.00 0.00 42 1010.1
20260504230556 76 229 18.0 27.0 0.00 0.00 0.00 41 1010.1
20260504230106 76 219 16.0 25.0 0.00 0.00 0.00 42 1010.2
20260504225557 77 238 14.0 25.0 0.00 0.00 0.00 44 1010.3
20260504225056 77 200 14.0 29.0 0.00 0.00 0.00 42 1010.2
20260504224558 76 192 13.0 29.0 0.00 0.00 0.00 43 1010.2
20260504224056 76 235 18.0 28.0 0.00 0.00 0.00 43 1010.3
20260504223556 76 222 20.0 28.0 0.00 0.00 0.00 42 1010.3
20260504223104 76 226 19.0 27.0 0.00 0.00 0.00 42 1010.2
20260504222558 76 231 19.0 25.0 0.00 0.00 0.00 42 1010.2
20260504222056 77 221 17.0 28.0 0.00 0.00 0.00 44 1010.2
20260504221603 76 208 21.0 28.0 0.00 0.00 0.00 43 1010.5
20260504221056 77 221 18.0 28.0 0.00 0.00 0.00 43 1010.5
20260504220556 77 214 20.0 28.0 0.00 0.00 0.00 42 1010.5
20260504220059 77 217 20.0 31.0 0.00 0.00 0.00 42 1010.5
20260504215559 76 201 20.0 31.0 0.00 0.00 0.00 42 1010.5
20260504215057 76 210 19.0 29.0 0.00 0.00 0.00 42 1010.7
20260504214558 77 203 19.0 31.0 0.00 0.00 0.00 42 1010.7
20260504214056 77 207 22.0 31.0 0.00 0.00 0.00 41 1010.6
20260504213556 77 192 15.0 28.0 0.00 0.00 0.00 42 1010.7
20260504213054 77 211 17.0 28.0 0.00 0.00 0.00 43 1010.6
20260504212556 77 222 20.0 28.0 0.00 0.00 0.00 41 1010.7
20260504212058 77 245 21.0 32.0 0.00 0.00 0.00 42 1010.7
20260504211605 77 234 21.0 35.0 0.00 0.00 0.00 40 1010.7
20260504211056 77 219 24.0 35.0 0.00 0.00 0.00 41 1010.7
20260504210556 77 229 21.0 34.0 0.00 0.00 0.00 42 1010.8
20260504210058 77 229 19.0 32.0 0.00 0.00 0.00 41 1010.6
20260504205556 77 231 16.0 34.0 0.00 0.00 0.00 40 1010.8
20260504205056 78 183 18.0 34.0 0.00 0.00 0.00 39 1010.8
20260504204602 78 176 15.0 29.0 0.00 0.00 0.00 40 1010.9
20260504204056 78 236 19.0 29.0 0.00 0.00 0.00 40 1011.1
20260504203558 78 214 17.0 33.0 0.00 0.00 0.00 40 1011.1
20260504203106 77 167 16.0 33.0 0.00 0.00 0.00 41 1011.1
20260504202556 77 224 17.0 29.0 0.00 0.00 0.00 42 1011.2
20260504202056 77 206 21.0 29.0 0.00 0.00 0.00 39 1011.3
20260504201600 78 186 19.0 27.0 0.00 0.00 0.00 41 1011.6
20260504201059 78 232 17.0 27.0 0.00 0.00 0.00 41 1011.7